Location: Cheching
(60.0667°N, 164.2167°W)
Time: 13:27:08
(UTC+00:00)

NOAA 19 - Pass Details

Date: 22 January 2021
Orbit: 840 x 862 km, 99.2° (Epoch: 01 March)

Event Time Altitude Azimuth Distance (km) Brightness Sun altitude
Rises 06:41:27 0° 227° (SW) 3,433 8.9 -28.4°
Reaches altitude 10° 06:45:22 10° 255° (WSW) 2,499 8.4 -28.9°
Maximum altitude 06:47:48 13° 281° (W) 2,299 8.3 -29.2°
Drops below altitude 10° 06:50:14 10° 307° (NW) 2,501 8.4 -29.5°
Sets 06:54:10 0° 336° (NNW) 3,439 8.9 -30.0°
